�������l�o���
Date,Time,MP-1(��Sv/h),MP-2(��Sv/h),MP-3(��Sv/h),MP-4(��Sv/h),MP-5(��Sv/h),MP-6(��Sv/h),MP-7(��Sv/h),MP-8(��Sv/h),����,����(m/s),���J
2017/11/28,00:00,0.904,1.473,0.934,1.761,1.201,0.493,0.889,0.846,�쐼,2.0,��
2017/11/28,00:10,0.900,1.475,0.934,1.755,1.201,0.493,0.887,0.846,���쐼,1.7,��
2017/11/28,00:20,0.902,1.472,0.933,1.756,1.200,0.493,0.889,0.846,�쐼,2.6,��
2017/11/28,00:30,0.902,1.475,0.936,1.757,1.201,0.494,0.888,0.847,��쐼,3.1,��
2017/11/28,00:40,0.903,1.472,0.935,1.755,1.201,0.495,0.888,0.847,��쐼,3.0,��
2017/11/28,00:50,0.902,1.474,0.934,1.757,1.199,0.496,0.888,0.846,��쐼,2.5,��
2017/11/28,01:00,0.901,1.472,0.935,1.760,1.199,0.495,0.888,0.847,��쐼,2.6,��
2017/11/28,01:10,0.903,1.473,0.933,1.756,1.199,0.494,0.887,0.846,��쐼,2.3,��
2017/11/28,01:20,0.900,1.473,0.935,1.755,1.199,0.495,0.887,0.844,�쐼,2.3,��
2017/11/28,01:30,0.900,1.474,0.934,1.758,1.201,0.494,0.889,0.846,��쐼,2.6,��
2017/11/28,01:40,0.902,1.474,0.934,1.757,1.200,0.495,0.887,0.846,���쐼,2.0,��
2017/11/28,01:50,0.901,1.473,0.936,1.756,1.200,0.496,0.887,0.847,���쐼,2.2,��
2017/11/28,02:00,0.901,1.474,0.934,1.758,1.202,0.494,0.886,0.845,�쐼,2.3,��
2017/11/28,02:10,0.901,1.472,0.935,1.759,1.201,0.496,0.889,0.844,���쐼,1.2,��
2017/11/28,02:20,0.902,1.472,0.936,1.758,1.201,0.496,0.888,0.846,���쐼,1.9,��
2017/11/28,02:30,0.901,1.472,0.935,1.759,1.199,0.495,0.887,0.846,�쐼,1.9,��
2017/11/28,02:40,0.903,1.474,0.934,1.756,1.202,0.495,0.888,0.846,���쐼,1.5,��
2017/11/28,02:50,0.901,1.472,0.936,1.759,1.202,0.495,0.890,0.845,�쐼,1.9,��
2017/11/28,03:00,0.902,1.471,0.936,1.756,1.201,0.496,0.890,0.845,���쐼,2.2,��
2017/11/28,03:10,0.901,1.474,0.935,1.757,1.200,0.495,0.888,0.846,��,1.5,��
2017/11/28,03:20,0.901,1.474,0.934,1.755,1.199,0.495,0.890,0.845,��,1.5,��
2017/11/28,03:30,0.902,1.473,0.933,1.753,1.203,0.496,0.889,0.846,�k��,0.9,��
2017/11/28,03:40,0.903,1.474,0.935,1.758,1.203,0.494,0.886,0.846,���쐼,1.1,��
2017/11/28,03:50,0.903,1.473,0.936,1.756,1.202,0.495,0.889,0.847,-,CALM,��
2017/11/28,04:00,0.901,1.474,0.936,1.760,1.198,0.494,0.888,0.847,�k��,0.8,��
2017/11/28,04:10,0.900,1.475,0.935,1.761,1.200,0.495,0.889,0.846,-,CALM,��
2017/11/28,04:20,0.901,1.472,0.933,1.756,1.199,0.494,0.889,0.847,-,CALM,��
2017/11/28,04:30,0.901,1.471,0.935,1.755,1.200,0.495,0.889,0.846,-,CALM,��
2017/11/28,04:40,0.903,1.473,0.934,1.757,1.200,0.494,0.890,0.845,��,0.6,��
2017/11/28,04:50,0.902,1.475,0.935,1.759,1.200,0.497,0.889,0.847,-,CALM,��
2017/11/28,05:00,0.902,1.472,0.934,1.762,1.200,0.495,0.888,0.846,-,CALM,��
2017/11/28,05:10,0.902,1.473,0.937,1.759,1.199,0.493,0.889,0.846,-,CALM,��
2017/11/28,05:20,0.902,1.473,0.935,1.756,1.201,0.495,0.888,0.846,-,CALM,��
2017/11/28,05:30,0.900,1.473,0.936,1.757,1.200,0.494,0.889,0.846,�k��,0.9,��
2017/11/28,05:40,0.903,1.476,0.933,1.756,1.202,0.494,0.888,0.846,�k�k��,2.0,��
2017/11/28,05:50,0.902,1.474,0.935,1.758,1.200,0.496,0.888,0.845,�k,1.4,��
2017/11/28,06:00,0.904,1.475,0.934,1.759,1.200,0.495,0.889,0.846,�k�k��,1.9,��
2017/11/28,06:10,0.902,1.473,0.937,1.758,1.202,0.494,0.888,0.846,�k�k��,1.5,��
2017/11/28,06:20,0.902,1.474,0.936,1.761,1.200,0.494,0.889,0.847,�k,2.0,��
2017/11/28,06:30,0.900,1.475,0.935,1.758,1.201,0.495,0.890,0.847,�k�k��,3.0,��
2017/11/28,06:40,0.902,1.473,0.935,1.758,1.202,0.496,0.889,0.847,�k�k��,2.2,��
2017/11/28,06:50,0.902,1.473,0.937,1.759,1.199,0.494,0.888,0.845,�k�k��,1.7,��
2017/11/28,07:00,0.902,1.475,0.935,1.759,1.199,0.495,0.891,0.846,�k,2.0,��
2017/11/28,07:10,0.902,1.473,0.935,1.759,1.201,0.495,0.889,0.846,�k�k��,2.2,��
2017/11/28,07:20,0.902,1.475,0.937,1.759,1.199,0.493,0.889,0.847,�k�k��,2.0,��
2017/11/28,07:30,0.902,1.476,0.935,1.759,1.201,0.495,0.888,0.845,�k�k��,2.3,��
2017/11/28,07:40,0.902,1.473,0.936,1.757,1.202,0.495,0.890,0.846,�k�k��,2.5,��
2017/11/28,07:50,0.903,1.476,0.937,1.760,1.201,0.495,0.888,0.848,�k��,2.0,��
2017/11/28,08:00,0.902,1.471,0.938,1.760,1.199,0.496,0.888,0.845,�k��,2.6,��
2017/11/28,08:10,0.903,1.473,0.936,1.762,1.198,0.495,0.887,0.845,�k�k��,2.0,��
2017/11/28,08:20,0.904,1.471,0.934,1.759,1.202,0.496,0.887,0.845,�k�k��,1.5,��
2017/11/28,08:30,0.904,1.474,0.936,1.759,1.202,0.496,0.887,0.847,�k�k��,1.9,��
2017/11/28,08:40,0.903,1.472,0.936,1.758,1.200,0.496,0.888,0.848,�k�k��,1.7,��
2017/11/28,08:50,0.904,1.473,0.937,1.762,1.199,0.495,0.886,0.846,�k��,1.7,��
2017/11/28,09:00,0.903,1.473,0.935,1.758,1.203,0.496,0.886,0.846,�k�k��,1.7,��
2017/11/28,09:10,0.904,1.469,0.935,1.759,1.200,0.495,0.889,0.848,�k,1.2,��
2017/11/28,09:20,0.904,1.474,0.936,1.763,1.201,0.495,0.887,0.846,�k�k��,2.3,��
2017/11/28,09:30,0.905,1.472,0.936,1.763,1.201,0.495,0.888,0.848,�k�k��,2.0,��
2017/11/28,09:40,0.904,1.467,0.936,1.763,1.203,0.497,0.888,0.847,�k,1.4,��
2017/11/28,09:50,0.906,1.469,0.937,1.761,1.202,0.496,0.887,0.848,�k,1.7,��
2017/11/28,10:00,0.904,1.469,0.939,1.764,1.203,0.495,0.887,0.847,�k,2.0,��
2017/11/28,10:10,0.907,1.469,0.937,1.760,1.203,0.496,0.887,0.849,�k,1.9,��
2017/11/28,10:20,0.905,1.466,0.938,1.762,1.203,0.497,0.888,0.849,�k,1.9,��
2017/11/28,10:30,0.906,1.468,0.938,1.764,1.202,0.496,0.887,0.848,�k,2.2,��
2017/11/28,10:40,0.907,1.472,0.939,1.761,1.205,0.496,0.886,0.848,�k,2.5,��
2017/11/28,10:50,0.904,1.468,0.939,1.765,1.202,0.496,0.887,0.848,�k,2.6,��
2017/11/28,11:00,0.906,1.470,0.937,1.762,1.201,0.495,0.886,0.847,�k�k��,2.6,��
2017/11/28,11:10,0.908,1.468,0.938,1.762,1.200,0.495,0.887,0.847,�k�k��,2.3,��
2017/11/28,11:20,0.908,1.467,0.940,1.762,1.200,0.497,0.888,0.847,�k�k��,2.0,��
2017/11/28,11:30,0.906,1.467,0.937,1.764,1.196,0.496,0.887,0.847,�k�k��,2.3,��
2017/11/28,11:40,0.905,1.470,0.937,1.762,1.199,0.496,0.885,0.849,���k��,3.2,��
2017/11/28,11:50,0.906,1.470,0.936,1.763,1.199,0.497,0.884,0.849,���k��,3.2,��
2017/11/28,12:00,0.908,1.469,0.937,1.762,1.197,0.495,0.885,0.848,�k��,3.0,��
2017/11/28,12:10,0.908,1.470,0.937,1.763,1.201,0.495,0.889,0.849,�k�k��,2.8,��
2017/11/28,12:20,0.907,1.470,0.940,1.761,1.200,0.495,0.888,0.848,���k��,2.3,��
2017/11/28,12:30,0.909,1.475,0.935,1.762,1.199,0.495,0.889,0.848,�k��,1.5,��
2017/11/28,12:40,0.909,1.472,0.937,1.761,1.201,0.496,0.887,0.849,�k��,1.5,��
2017/11/28,12:50,0.908,1.472,0.939,1.762,1.200,0.497,0.888,0.850,���k��,1.9,��
2017/11/28,13:00,0.910,1.472,0.937,1.763,1.202,0.495,0.889,0.848,���k��,1.7,��
2017/11/28,13:10,0.907,1.468,0.938,1.762,1.200,0.496,0.887,0.849,��,2.2,��
2017/11/28,13:20,0.908,1.473,0.937,1.763,1.187,0.496,0.888,0.848,���쓌,1.7,��
2017/11/28,13:30,0.908,1.472,0.939,1.762,1.185,0.498,0.888,0.848,���쓌,2.3,��
2017/11/28,13:40,0.907,1.471,0.936,1.763,1.177,0.495,0.889,0.849,��,2.0,��
2017/11/28,13:50,0.908,1.470,0.935,1.763,1.190,0.496,0.888,0.848,���쓌,1.5,��
2017/11/28,14:00,0.906,1.471,0.936,1.765,1.195,0.496,0.889,0.850,���쓌,2.0,��
2017/11/28,14:10,0.909,1.475,0.937,1.764,1.197,0.496,0.887,0.850,���쓌,1.5,��
2017/11/28,14:20,0.907,1.472,0.935,1.766,1.198,0.497,0.888,0.848,���쓌,1.9,��
2017/11/28,14:30,0.906,1.472,0.936,1.763,1.197,0.498,0.891,0.849,���쓌,2.0,��
2017/11/28,14:40,0.908,1.473,0.939,1.764,1.199,0.498,0.889,0.848,��,1.7,��
2017/11/28,14:50,0.908,1.472,0.938,1.763,-,0.498,0.889,0.848,�쓌,2.6,��
2017/11/28,15:00,0.908,1.476,0.939,1.763,1.183,0.498,0.890,0.849,���쓌,1.9,��
2017/11/28,15:10,0.909,1.474,0.940,1.764,1.192,0.497,0.888,0.848,�쓌,1.5,��
2017/11/28,15:20,0.910,1.477,0.940,1.763,1.194,0.497,0.890,0.851,�쓌,1.7,��
2017/11/28,15:30,0.909,1.477,0.938,1.760,1.189,0.497,0.890,0.848,�쓌,2.0,��
2017/11/28,15:40,0.908,1.475,0.939,1.762,1.193,0.497,0.890,0.848,��쓌,1.2,��
2017/11/28,15:50,0.906,1.478,0.939,1.764,1.187,0.497,0.891,0.848,�쓌,2.0,��
2017/11/28,16:00,0.907,1.476,0.939,1.763,-,0.497,0.890,0.850,��쓌,2.0,��
2017/11/28,16:10,0.909,1.476,0.937,1.761,1.184,0.498,0.891,0.849,��쓌,1.5,��
2017/11/28,16:20,0.907,1.476,0.939,1.764,1.194,0.498,0.892,0.848,��,1.5,��
2017/11/28,16:30,0.905,1.477,0.939,1.762,1.202,0.497,0.889,0.848,��쓌,2.8,��
2017/11/28,16:40,0.905,1.476,0.940,1.761,1.202,-,0.892,0.847,��,3.0,��
2017/11/28,16:50,0.904,1.478,0.937,1.760,1.204,0.494,0.893,0.848,��,2.8,��
2017/11/28,17:00,0.906,1.477,0.938,1.763,1.205,0.495,0.891,0.849,��,2.0,��
2017/11/28,17:10,0.903,1.477,0.939,1.760,1.205,0.496,0.891,0.846,�쐼,2.0,��
2017/11/28,17:20,0.903,1.479,0.939,1.759,1.203,0.497,0.889,0.849,���쐼,1.9,��
2017/11/28,17:30,0.903,1.478,0.940,1.761,1.206,0.497,0.892,0.849,���쐼,1.2,��
2017/11/28,17:40,0.904,1.479,0.939,1.765,1.204,-,0.890,0.847,���쐼,2.0,��
2017/11/28,17:50,0.906,1.477,0.939,1.762,1.204,0.496,0.891,0.847,��,2.9,��
2017/11/28,18:00,0.904,1.476,0.940,1.760,1.203,0.496,0.889,0.848,��,2.2,��
2017/11/28,18:10,0.906,1.477,0.939,1.766,1.205,0.497,0.890,0.848,���쐼,1.1,��
2017/11/28,18:20,0.907,1.478,0.939,1.763,1.203,0.497,0.890,0.849,�쐼,0.9,��
2017/11/28,18:30,0.905,1.479,0.939,1.763,1.201,0.499,0.889,0.848,��,1.2,��
2017/11/28,18:40,0.905,1.477,0.938,1.762,1.202,0.497,0.892,0.847,��쐼,1.2,��
2017/11/28,18:50,0.905,1.478,0.937,1.764,1.201,0.497,0.890,0.846,��쐼,1.7,��
2017/11/28,19:00,0.904,1.476,0.937,1.760,1.202,0.498,0.891,0.846,��쐼,1.5,��
2017/11/28,19:10,0.903,1.477,0.938,1.761,1.204,0.499,0.891,0.849,��쐼,2.8,��
2017/11/28,19:20,0.903,1.476,0.937,1.763,1.203,0.498,0.892,0.848,�쐼,3.0,��
2017/11/28,19:30,0.904,1.478,0.939,1.761,1.204,0.498,0.892,0.846,���쐼,2.2,��
2017/11/28,19:40,0.904,1.475,0.938,1.763,1.204,0.498,0.891,0.847,���쐼,2.3,��
2017/11/28,19:50,0.904,1.475,0.938,1.759,1.200,0.499,0.890,0.845,��,2.0,��
2017/11/28,20:00,0.902,1.473,0.939,1.760,1.204,0.497,0.891,0.847,���쐼,2.0,��
2017/11/28,20:10,0.906,1.474,0.938,1.762,1.204,0.496,0.891,0.845,���쐼,1.5,��
2017/11/28,20:20,0.902,1.474,0.938,1.761,1.202,0.498,0.890,0.848,��쐼,1.2,��
2017/11/28,20:30,0.904,1.475,0.940,1.760,1.203,0.497,0.892,0.847,��,0.9,��
2017/11/28,20:40,0.902,1.474,0.936,1.760,1.205,0.498,0.891,0.847,-,CALM,��
2017/11/28,20:50,0.904,1.475,0.937,1.759,1.203,0.498,0.890,0.848,���쓌,0.9,��
2017/11/28,21:00,0.903,1.476,0.938,1.760,1.205,0.499,0.889,0.846,���쓌,0.9,��
2017/11/28,21:10,0.907,1.474,0.937,1.759,1.202,0.498,0.889,0.848,�쓌,1.2,��
2017/11/28,21:20,0.905,1.477,0.937,1.758,1.203,0.497,0.890,0.847,��쓌,1.4,��
2017/11/28,21:30,0.905,1.474,0.937,1.762,1.201,0.498,0.891,0.848,��쓌,2.6,��
2017/11/28,21:40,0.907,1.473,0.940,1.760,1.204,0.498,0.888,0.848,��쓌,3.0,��
2017/11/28,21:50,0.904,1.472,0.939,1.762,1.202,0.499,0.890,0.848,��쓌,4.5,��
2017/11/28,22:00,0.906,1.474,0.939,1.758,1.204,0.498,0.890,0.846,��,3.0,��
2017/11/28,22:10,0.906,1.478,0.939,1.759,1.204,0.497,0.891,0.845,��,2.6,��
2017/11/28,22:20,0.905,1.476,0.937,1.762,1.204,0.498,0.890,0.847,��,3.7,��
2017/11/28,22:30,0.905,1.475,0.940,1.760,1.199,0.498,0.890,0.848,��,4.4,��
2017/11/28,22:40,0.905,1.474,0.939,1.759,1.204,0.499,0.891,0.847,��,4.5,��
2017/11/28,22:50,0.908,1.475,0.938,1.759,1.204,0.498,0.890,0.847,��,4.1,��
2017/11/28,23:00,0.905,1.473,0.937,1.761,1.202,0.499,0.891,0.848,��,3.4,��
2017/11/28,23:10,0.904,1.474,0.939,1.762,1.201,0.497,0.889,0.848,��,2.6,��
2017/11/28,23:20,0.906,1.474,0.938,1.761,1.202,0.497,0.891,0.849,��,2.6,��
2017/11/28,23:30,0.906,1.472,0.939,1.760,1.202,0.498,0.890,0.848,��,3.3,��
2017/11/28,23:40,0.904,1.475,0.940,1.758,1.201,0.499,0.889,0.847,��,3.3,��
2017/11/28,23:50,0.906,1.475,0.939,1.759,1.202,0.499,0.891,0.846,��쐼,3.1,��
